QPF
0.00 0.01 0.01 0.01 0.00 0.00 0.01 0.01 0.01 0.01 0.00 0.00 0.00 0.01 0.01 0.00 0.00 0.00 0.00 0.00 0.00 0.00 0.00 0.00 0.00 0.00 0.00 0.00 0.00 0.00 0.00 0.00 0.00 0.00 0.00 0.00 0.00 0.00 0.00 0.00 0.00 0.00 0.00 0.00
0.00 0.00 0.01 0.01 0.00 0.00 0.00 0.00 0.00 0.00 0.00 0.00 0.00 0.01 0.01 0.00 0.00 0.00 0.00 0.00 0.00 0.00 0.00 0.00 0.00 0.00 0.00 0.00 0.00 0.00 0.00 0.00 0.00 0.00 0.00 0.00 0.00 0.00 0.00 0.00 0.00 0.00 0.00 0.00
0.00 0.00 0.00 0.00 0.00 0.00 0.00 0.00 0.00 0.00 0.00 0.00 0.00 0.01 0.01 0.00 0.00 0.00 0.00 0.00 0.00 0.00 0.00 0.00 0.00 0.00 0.00 0.00 0.00 0.00 0.00 0.00 0.00 0.00 0.00 0.00 0.00 0.00 0.00 0.00 0.00 0.00 0.00 0.00
0.01 0.00 0.01 0.01 0.00 0.00 0.00 0.01 0.01 0.01 0.00 0.00 0.00 0.00 0.00 0.00 0.00 0.00 0.00 0.00 0.00 0.00 0.00 0.00 0.00 0.00 0.00 0.00 0.00 0.00 0.00 0.00 0.00 0.00 0.00 0.00 0.00 0.00 0.00 0.00 0.00 0.00 0.00 0.00
0.01 0.01 0.00 0.00 0.00 0.01 0.01 0.01 0.01 0.00 0.00 0.01 0.01 0.01 0.01 0.01 0.01 0.00 0.00 0.00 0.00 0.00 0.00 0.00 0.00 0.00 0.00 0.00 0.00 0.00 0.00 0.00 0.00 0.00 0.00 0.00 0.00 0.00 0.00 0.00 0.00 0.00 0.00 0.00
0.01 0.01 0.00 0.00 0.00 0.00 0.00 0.01 0.00 0.00 0.00 0.00 0.01 0.01 0.01 0.01 0.01 0.01 0.00 0.00 0.00 0.00 0.00 0.00 0.00 0.00 0.00 0.00 0.00 0.00 0.00 0.00 0.00 0.00 0.00 0.00 0.00 0.00 0.00 0.00 0.00 0.00 0.00 0.00
0.01 0.01 0.00 0.00 0.00 0.00 0.00 0.01 0.00 0.00 0.00 0.00 0.01 0.01 0.01 0.00 0.00 0.00 0.00 0.00 0.00 0.00 0.00 0.00 0.00 0.00 0.00 0.00 0.00 0.00 0.00 0.00 0.00 0.00 0.00 0.00 0.00 0.00 0.00 0.00 0.00 0.00 0.00 0.00
0.00 0.00 0.00 0.00 0.00 0.00 0.00 0.00 0.00 0.00 0.00 0.00 0.00 0.00 0.00 0.00 0.00 0.00 0.00 0.00 0.00 0.00 0.00 0.00 0.00 0.00 0.00 0.00 0.00 0.00 0.00 0.00 0.00 0.00 0.00 0.00 0.00 0.00 0.00 0.00 0.00 0.00 0.00 0.00
0.00 0.00 0.00 0.00 0.00 0.00 0.00 0.00 0.00 0.00 0.00 0.00 0.00 0.00 0.00 0.00 0.00 0.00 0.00 0.00 0.00 0.00 0.00 0.00 0.00 0.00 0.00 0.00 0.00 0.00 0.00 0.00 0.00 0.00 0.00 0.00 0.00 0.01 0.01 0.01 0.01 0.00 0.00 0.00
0.00 0.00 0.00 0.00 0.00 0.00 0.00 0.00 0.00 0.00 0.00 0.00 0.00 0.00 0.00 0.00 0.00 0.00 0.00 0.00 0.00 0.00 0.00 0.00 0.00 0.00 0.00 0.00 0.00 0.00 0.00 0.01 0.01 0.01 0.01 0.01 0.01 0.01 0.01 0.01 0.01 0.00 0.00 0.00
0.00 0.00 0.00 0.00 0.00 0.00 0.00 0.00 0.00 0.00 0.00 0.00 0.00 0.00 0.00 0.00 0.00 0.00 0.00 0.00 0.00 0.00 0.00 0.00 0.00 0.00 0.00 0.00 0.01 0.01 0.01 0.01 0.01 0.01 0.01 0.01 0.01 0.01 0.02 0.02 0.02 0.01 0.01 0.01
0.00 0.00 0.00 0.00 0.00 0.00 0.00 0.00 0.00 0.00 0.00 0.00 0.00 0.00 0.00 0.00 0.00 0.00 0.00 0.00 0.00 0.00 0.00 0.00 0.00 0.00 0.00 0.00 0.00 0.01 0.01 0.01 0.01 0.01 0.02 0.02 0.02 0.03 0.03 0.03 0.03 0.03 0.02 0.01
0.00 0.00 0.00 0.00 0.00 0.00 0.00 0.00 0.00 0.00 0.00 0.00 0.00 0.00 0.00 0.00 0.00 0.00 0.00 0.00 0.00 0.00 0.00 0.00 0.00 0.00 0.00 0.01 0.01 0.01 0.01 0.02 0.03 0.03 0.03 0.03 0.03 0.03 0.03 0.03 0.03 0.03 0.02 0.02
0.00 0.00 0.00 0.00 0.00 0.00 0.00 0.00 0.00 0.00 0.00 0.00 0.00 0.00 0.00 0.00 0.00 0.00 0.00 0.00 0.00 0.00 0.00 0.00 0.00 0.00 0.01 0.01 0.01 0.02 0.02 0.03 0.04 0.05 0.06 0.06 0.06 0.05 0.04 0.04 0.03 0.03 0.03 0.03
0.00 0.00 0.00 0.00 0.00 0.00 0.00 0.00 0.00 0.00 0.00 0.00 0.00 0.00 0.00 0.00 0.00 0.00 0.00 0.00 0.00 0.00 0.00 0.00 0.00 0.00 0.01 0.01 0.02 0.02 0.02 0.03 0.04 0.05 0.07 0.08 0.08 0.07 0.06 0.05 0.04 0.03 0.03 0.03
0.00 0.00 0.00 0.00 0.00 0.00 0.00 0.00 0.00 0.00 0.00 0.00 0.00 0.00 0.00 0.00 0.00 0.00 0.00 0.00 0.00 0.00 0.00 0.00 0.00 0.00 0.01 0.02 0.02 0.02 0.02 0.03 0.04 0.05 0.05 0.07 0.08 0.07 0.06 0.05 0.04 0.03 0.03 0.02
0.00 0.00 0.00 0.00 0.00 0.00 0.00 0.00 0.00 0.00 0.00 0.00 0.00 0.00 0.00 0.00 0.00 0.00 0.00 0.00 0.00 0.00 0.01 0.01 0.01 0.01 0.01 0.02 0.02 0.03 0.03 0.04 0.05 0.05 0.05 0.05 0.06 0.06 0.05 0.04 0.04 0.03 0.03 0.03
0.00 0.00 0.00 0.00 0.00 0.00 0.00 0.00 0.00 0.00 0.00 0.00 0.00 0.00 0.00 0.01 0.01 0.00 0.00 0.00 0.00 0.00 0.01 0.01 0.02 0.02 0.02 0.02 0.03 0.03 0.04 0.04 0.05 0.05 0.05 0.05 0.05 0.05 0.05 0.04 0.04 0.03 0.03 0.04
0.00 0.00 0.00 0.00 0.00 0.00 0.00 0.00 0.00 0.00 0.00 0.00 0.00 0.00 0.00 0.01 0.01 0.01 0.01 0.01 0.01 0.01 0.01 0.01 0.02 0.02 0.02 0.02 0.03 0.04 0.04 0.05 0.05 0.06 0.05 0.06 0.06 0.05 0.05 0.04 0.04 0.04 0.04 0.04
0.00 0.00 0.00 0.00 0.00 0.00 0.00 0.00 0.00 0.00 0.00 0.00 0.00 0.00 0.00 0.01 0.01 0.01 0.01 0.01 0.01 0.01 0.01 0.01 0.02 0.02 0.02 0.02 0.03 0.04 0.05 0.05 0.06 0.05 0.05 0.05 0.05 0.05 0.04 0.04 0.04 0.04 0.04 0.04
0.00 0.00 0.00 0.00 0.00 0.00 0.00 0.00 0.00 0.00 0.00 0.00 0.00 0.00 0.00 0.01 0.01 0.01 0.02 0.01 0.01 0.01 0.01 0.02 0.02 0.02 0.03 0.03 0.04 0.04 0.05 0.05 0.06 0.05 0.05 0.04 0.04 0.04 0.04 0.04 0.04 0.04 0.04 0.04
0.00 0.00 0.00 0.00 0.00 0.00 0.00 0.00 0.00 0.00 0.00 0.00 0.00 0.00 0.00 0.01 0.01 0.01 0.01 0.02 0.02 0.02 0.02 0.02 0.02 0.03 0.04 0.05 0.05 0.05 0.05 0.06 0.05 0.05 0.05 0.04 0.04 0.04 0.04 0.04 0.03 0.03 0.03 0.04
0.00 0.00 0.00 0.00 0.00 0.00 0.00 0.00 0.00 0.00 0.00 0.00 0.00 0.00 0.00 0.01 0.01 0.02 0.01 0.01 0.02 0.02 0.03 0.03 0.03 0.04 0.05 0.05 0.06 0.06 0.07 0.07 0.06 0.06 0.05 0.05 0.04 0.04 0.04 0.03 0.03 0.03 0.03 0.03
0.00 0.00 0.00 0.00 0.00 0.00 0.00 0.00 0.00 0.00 0.00 0.00 0.00 0.00 0.00 0.01 0.01 0.01 0.02 0.01 0.02 0.03 0.03 0.04 0.04 0.04 0.05 0.05 0.06 0.06 0.07 0.07 0.06 0.06 0.06 0.05 0.04 0.03 0.03 0.03 0.02 0.02 0.02 0.02
0.00 0.00 0.00 0.00 0.00 0.00 0.00 0.00 0.00 0.00 0.00 0.00 0.00 0.00 0.00 0.01 0.01 0.01 0.01 0.01 0.01 0.02 0.03 0.03 0.04 0.04 0.04 0.05 0.05 0.06 0.06 0.06 0.06 0.06 0.05 0.05 0.04 0.03 0.03 0.03 0.02 0.02 0.02 0.02
0.00 0.00 0.00 0.00 0.00 0.00 0.00 0.00 0.00 0.00 0.00 0.00 0.00 0.00 0.00 0.01 0.01 0.01 0.01 0.01 0.01 0.02 0.03 0.03 0.03 0.04 0.04 0.05 0.05 0.05 0.05 0.05 0.05 0.05 0.05 0.04 0.04 0.03 0.03 0.02 0.02 0.02 0.01 0.01
0.00 0.00 0.00 0.00 0.00 0.00 0.00 0.00 0.00 0.00 0.00 0.00 0.01 0.00 0.01 0.01 0.01 0.01 0.01 0.01 0.01 0.02 0.02 0.03 0.03 0.03 0.04 0.04 0.04 0.04 0.04 0.04 0.04 0.04 0.04 0.03 0.03 0.02 0.02 0.02 0.02 0.02 0.01 0.01
MSLP
1011.42 1011.26 1011.15 1011.10 1011.14 1011.27 1011.51 1011.86 1012.30 1012.83 1013.43 1014.06 1014.70 1015.31 1015.86 1016.33 1016.68 1016.93 1017.06 1017.10 1017.06 1016.96 1016.82 1016.64 1016.45 1016.22 1015.97 1015.69 1015.38 1015.05 1014.73 1014.44 1014.21 1014.08 1014.07 1014.19 1014.45 1014.82 1015.27 1015.77 1016.28 1016.76 1017.18 1017.53
1012.00 1011.85 1011.74 1011.68 1011.69 1011.81 1012.03 1012.36 1012.80 1013.34 1013.95 1014.61 1015.27 1015.91 1016.48 1016.95 1017.31 1017.55 1017.66 1017.66 1017.56 1017.40 1017.19 1016.94 1016.67 1016.37 1016.05 1015.72 1015.37 1015.02 1014.69 1014.41 1014.19 1014.08 1014.09 1014.22 1014.48 1014.85 1015.29 1015.76 1016.25 1016.70 1017.09 1017.43
1012.57 1012.46 1012.38 1012.33 1012.36 1012.47 1012.69 1013.01 1013.44 1013.96 1014.55 1015.19 1015.83 1016.45 1016.99 1017.44 1017.77 1017.98 1018.05 1018.02 1017.88 1017.67 1017.40 1017.09 1016.75 1016.40 1016.02 1015.64 1015.26 1014.90 1014.56 1014.29 1014.09 1014.00 1014.03 1014.19 1014.46 1014.83 1015.26 1015.72 1016.18 1016.60 1016.98 1017.30
1013.15 1013.10 1013.06 1013.07 1013.13 1013.26 1013.48 1013.80 1014.20 1014.69 1015.24 1015.82 1016.40 1016.95 1017.43 1017.83 1018.11 1018.27 1018.30 1018.23 1018.06 1017.81 1017.50 1017.15 1016.77 1016.37 1015.95 1015.53 1015.12 1014.73 1014.39 1014.12 1013.94 1013.87 1013.92 1014.10 1014.38 1014.75 1015.18 1015.63 1016.07 1016.48 1016.84 1017.14
1013.77 1013.77 1013.80 1013.85 1013.96 1014.13 1014.37 1014.68 1015.06 1015.50 1015.99 1016.49 1016.99 1017.45 1017.85 1018.16 1018.37 1018.48 1018.47 1018.37 1018.17 1017.91 1017.58 1017.20 1016.78 1016.34 1015.89 1015.43 1014.98 1014.56 1014.21 1013.93 1013.75 1013.69 1013.76 1013.95 1014.24 1014.62 1015.05 1015.50 1015.93 1016.32 1016.66 1016.95
1014.42 1014.47 1014.55 1014.65 1014.81 1015.01 1015.27 1015.58 1015.94 1016.34 1016.76 1017.18 1017.58 1017.94 1018.24 1018.47 1018.61 1018.65 1018.61 1018.49 1018.28 1018.00 1017.66 1017.27 1016.84 1016.37 1015.88 1015.38 1014.89 1014.44 1014.05 1013.75 1013.55 1013.48 1013.55 1013.74 1014.03 1014.41 1014.84 1015.28 1015.71 1016.10 1016.43 1016.71
1015.08 1015.16 1015.27 1015.42 1015.61 1015.85 1016.13 1016.44 1016.78 1017.13 1017.49 1017.83 1018.14 1018.40 1018.61 1018.75 1018.83 1018.83 1018.75 1018.61 1018.40 1018.13 1017.80 1017.40 1016.96 1016.47 1015.95 1015.41 1014.87 1014.37 1013.93 1013.59 1013.35 1013.25 1013.29 1013.46 1013.75 1014.12 1014.54 1014.98 1015.40 1015.78 1016.11 1016.38
1015.70 1015.79 1015.92 1016.10 1016.32 1016.57 1016.87 1017.18 1017.51 1017.83 1018.13 1018.40 1018.63 1018.81 1018.94 1019.01 1019.03 1018.99 1018.90 1018.75 1018.55 1018.29 1017.97 1017.58 1017.14 1016.63 1016.09 1015.50 1014.92 1014.37 1013.87 1013.46 1013.17 1013.02 1013.01 1013.14 1013.39 1013.73 1014.13 1014.56 1014.97 1015.35 1015.68 1015.96
1016.24 1016.33 1016.46 1016.65 1016.88 1017.15 1017.45 1017.77 1018.08 1018.37 1018.63 1018.85 1019.02 1019.14 1019.20 1019.22 1019.19 1019.12 1019.02 1018.87 1018.68 1018.44 1018.14 1017.77 1017.34 1016.83 1016.26 1015.65 1015.02 1014.41 1013.84 1013.37 1013.01 1012.78 1012.70 1012.77 1012.97 1013.27 1013.63 1014.04 1014.44 1014.81 1015.15 1015.44
1016.66 1016.74 1016.87 1017.06 1017.30 1017.58 1017.88 1018.19 1018.49 1018.76 1018.99 1019.17 1019.29 1019.36 1019.38 1019.35 1019.29 1019.20 1019.09 1018.95 1018.77 1018.55 1018.28 1017.93 1017.51 1017.01 1016.43 1015.80 1015.13 1014.47 1013.85 1013.30 1012.87 1012.56 1012.40 1012.39 1012.52 1012.75 1013.07 1013.43 1013.81 1014.17 1014.52 1014.82
1016.95 1017.03 1017.16 1017.35 1017.59 1017.87 1018.18 1018.49 1018.78 1019.03 1019.23 1019.38 1019.46 1019.49 1019.47 1019.41 1019.32 1019.21 1019.08 1018.94 1018.77 1018.57 1018.31 1017.99 1017.59 1017.10 1016.54 1015.90 1015.22 1014.53 1013.86 1013.26 1012.75 1012.36 1012.11 1012.02 1012.05 1012.21 1012.46 1012.76 1013.11 1013.46 1013.79 1014.11
1017.14 1017.23 1017.37 1017.57 1017.82 1018.10 1018.40 1018.70 1018.98 1019.21 1019.39 1019.51 1019.56 1019.54 1019.48 1019.38 1019.26 1019.12 1018.97 1018.81 1018.65 1018.45 1018.21 1017.91 1017.53 1017.07 1016.53 1015.91 1015.24 1014.54 1013.85 1013.21 1012.64 1012.18 1011.85 1011.66 1011.61 1011.67 1011.84 1012.08 1012.37 1012.68 1013.01 1013.33
1017.29 1017.40 1017.56 1017.77 1018.03 1018.31 1018.61 1018.90 1019.16 1019.37 1019.52 1019.60 1019.61 1019.55 1019.44 1019.29 1019.12 1018.94 1018.76 1018.57 1018.38 1018.18 1017.94 1017.66 1017.31 1016.88 1016.38 1015.79 1015.15 1014.48 1013.79 1013.13 1012.53 1012.02 1011.62 1011.34 1011.19 1011.16 1011.23 1011.39 1011.61 1011.88 1012.18 1012.49
1017.44 1017.59 1017.78 1018.01 1018.28 1018.57 1018.85 1019.13 1019.36 1019.54 1019.64 1019.68 1019.64 1019.53 1019.36 1019.16 1018.93 1018.69 1018.45 1018.22 1018.00 1017.77 1017.52 1017.24 1016.91 1016.52 1016.06 1015.53 1014.94 1014.31 1013.65 1013.00 1012.39 1011.85 1011.39 1011.03 1010.79 1010.66 1010.64 1010.71 1010.85 1011.06 1011.32 1011.61
1017.66 1017.84 1018.07 1018.32 1018.60 1018.88 1019.15 1019.39 1019.58 1019.71 1019.77 1019.75 1019.66 1019.48 1019.26 1018.99 1018.69 1018.38 1018.08 1017.79 1017.51 1017.24 1016.97 1016.69 1016.38 1016.02 1015.61 1015.14 1014.61 1014.03 1013.42 1012.80 1012.20 1011.64 1011.14 1010.72 1010.40 1010.18 1010.06 1010.04 1010.10 1010.24 1010.45 1010.70
1017.95 1018.18 1018.43 1018.70 1018.97 1019.24 1019.47 1019.67 1019.81 1019.89 1019.89 1019.81 1019.64 1019.41 1019.12 1018.78 1018.41 1018.03 1017.66 1017.30 1016.96 1016.64 1016.34 1016.04 1015.73 1015.40 1015.03 1014.62 1014.15 1013.64 1013.09 1012.52 1011.94 1011.38 1010.85 1010.39 1010.00 1009.70 1009.49 1009.37 1009.35 1009.42 1009.57 1009.79
1018.32 1018.58 1018.84 1019.11 1019.36 1019.59 1019.78 1019.92 1020.00 1020.00 1019.94 1019.79 1019.57 1019.27 1018.92 1018.52 1018.09 1017.64 1017.20 1016.78 1016.38 1016.01 1015.67 1015.35 1015.03 1014.72 1014.38 1014.02 1013.61 1013.16 1012.67 1012.15 1011.60 1011.05 1010.52 1010.02 1009.57 1009.20 1008.92 1008.72 1008.63 1008.63 1008.73 1008.91
1018.73 1018.99 1019.26 1019.50 1019.71 1019.88 1020.01 1020.07 1020.07 1020.01 1019.87 1019.67 1019.39 1019.04 1018.64 1018.19 1017.72 1017.22 1016.73 1016.25 1015.80 1015.38 1015.00 1014.65 1014.33 1014.02 1013.70 1013.38 1013.02 1012.63 1012.19 1011.71 1011.20 1010.67 1010.13 1009.61 1009.13 1008.71 1008.36 1008.11 1007.95 1007.89 1007.94 1008.09
1019.12 1019.37 1019.60 1019.80 1019.95 1020.05 1020.09 1020.07 1019.99 1019.86 1019.65 1019.39 1019.07 1018.69 1018.26 1017.79 1017.28 1016.76 1016.23 1015.72 1015.23 1014.77 1014.36 1013.98 1013.65 1013.33 1013.03 1012.73 1012.41 1012.06 1011.67 1011.23 1010.76 1010.25 1009.72 1009.20 1008.69 1008.24 1007.86 1007.56 1007.36 1007.26 1007.28 1007.40
1019.43 1019.66 1019.85 1019.98 1020.05 1020.06 1020.01 1019.90 1019.74 1019.53 1019.27 1018.96 1018.61 1018.21 1017.77 1017.29 1016.78 1016.24 1015.71 1015.18 1014.67 1014.19 1013.75 1013.36 1013.01 1012.69 1012.40 1012.11 1011.82 1011.50 1011.15 1010.75 1010.31 1009.83 1009.32 1008.81 1008.31 1007.84 1007.44 1007.12 1006.90 1006.78 1006.78 1006.88
1019.65 1019.83 1019.96 1020.02 1020.00 1019.92 1019.77 1019.58 1019.34 1019.06 1018.74 1018.40 1018.03 1017.62 1017.18 1016.71 1016.21 1015.69 1015.16 1014.63 1014.11 1013.62 1013.18 1012.77 1012.41 1012.10 1011.81 1011.54 1011.26 1010.98 1010.66 1010.30 1009.90 1009.45 1008.98 1008.49 1008.01 1007.56 1007.16 1006.84 1006.62 1006.49 1006.48 1006.58
1019.77 1019.90 1019.96 1019.93 1019.83 1019.66 1019.42 1019.14 1018.83 1018.49 1018.13 1017.76 1017.37 1016.97 1016.53 1016.08 1015.60 1015.10 1014.58 1014.06 1013.55 1013.07 1012.62 1012.22 1011.86 1011.54 1011.26 1011.01 1010.76 1010.50 1010.22 1009.91 1009.55 1009.16 1008.73 1008.29 1007.84 1007.42 1007.05 1006.75 1006.54 1006.42 1006.41 1006.50
1019.81 1019.89 1019.88 1019.78 1019.60 1019.34 1019.03 1018.67 1018.29 1017.90 1017.51 1017.11 1016.71 1016.30 1015.88 1015.43 1014.97 1014.49 1013.99 1013.49 1012.99 1012.52 1012.08 1011.68 1011.32 1011.02 1010.75 1010.52 1010.31 1010.09 1009.85 1009.59 1009.30 1008.96 1008.60 1008.21 1007.82 1007.45 1007.12 1006.85 1006.66 1006.55 1006.55 1006.63
1019.83 1019.86 1019.79 1019.62 1019.36 1019.03 1018.65 1018.24 1017.81 1017.37 1016.94 1016.52 1016.10 1015.68 1015.26 1014.82 1014.37 1013.89 1013.41 1012.92 1012.44 1011.97 1011.54 1011.16 1010.82 1010.53 1010.29 1010.09 1009.91 1009.74 1009.56 1009.36 1009.14 1008.88 1008.58 1008.27 1007.95 1007.64 1007.36 1007.13 1006.96 1006.87 1006.86 1006.93
1019.87 1019.85 1019.72 1019.50 1019.18 1018.80 1018.37 1017.90 1017.43 1016.95 1016.49 1016.04 1015.60 1015.17 1014.73 1014.29 1013.83 1013.36 1012.87 1012.39 1011.91 1011.46 1011.04 1010.67 1010.35 1010.08 1009.88 1009.71 1009.58 1009.46 1009.35 1009.22 1009.07 1008.89 1008.67 1008.44 1008.19 1007.94 1007.72 1007.52 1007.38 1007.30 1007.29 1007.34
1019.97 1019.90 1019.73 1019.46 1019.10 1018.67 1018.20 1017.70 1017.19 1016.68 1016.19 1015.71 1015.25 1014.79 1014.33 1013.87 1013.39 1012.91 1012.42 1011.94 1011.46 1011.01 1010.61 1010.25 1009.95 1009.71 1009.53 1009.41 1009.32 1009.26 1009.21 1009.15 1009.07 1008.97 1008.84 1008.68 1008.50 1008.32 1008.14 1007.98 1007.86 1007.78 1007.76 1007.79
1020.14 1020.03 1019.82 1019.51 1019.11 1018.66 1018.16 1017.63 1017.10 1016.57 1016.05 1015.55 1015.05 1014.57 1014.08 1013.60 1013.10 1012.60 1012.10 1011.61 1011.13 1010.69 1010.29 1009.94 1009.66 1009.45 1009.30 1009.21 1009.16 1009.15 1009.15 1009.15 1009.14 1009.11 1009.04 1008.95 1008.83 1008.70 1008.56 1008.43 1008.32 1008.23 1008.19 1008.19
Thickness
5496 5502 5506 5509 5512 5513 5512 5510 5508 5514 5515 5518 5516 5516 5515 5515 5517 5519 5519 5520 5521 5521 5523 5526 5529 5532 5535 5538 5541 5543 5544 5545 5546 5546 5545 5544 5543 5542 5541 5539 5537 5534 5532 5529
5496 5500 5505 5507 5508 5509 5510 5511 5511 5512 5511 5509 5507 5505 5505 5504 5505 5505 5506 5507 5509 5510 5512 5514 5516 5519 5522 5525 5529 5531 5533 5534 5534 5534 5533 5532 5531 5530 5528 5526 5524 5522 5520 5518
5486 5494 5506 5500 5500 5503 5504 5500 5506 5507 5504 5499 5499 5497 5493 5492 5492 5492 5492 5494 5495 5496 5498 5500 5503 5506 5510 5514 5517 5520 5522 5523 5523 5522 5522 5521 5520 5518 5516 5514 5513 5511 5509 5507
5478 5491 5488 5496 5494 5496 5494 5490 5489 5492 5489 5488 5488 5484 5480 5479 5479 5479 5480 5481 5482 5484 5486 5489 5491 5494 5498 5502 5505 5507 5509 5511 5511 5511 5510 5509 5508 5507 5505 5504 5502 5500 5498 5497
5473 5475 5482 5491 5491 5489 5491 5487 5479 5480 5478 5477 5476 5477 5472 5469 5468 5467 5467 5468 5469 5471 5473 5475 5478 5482 5485 5489 5492 5494 5497 5498 5499 5499 5499 5498 5497 5496 5495 5493 5491 5489 5488 5486
5473 5479 5482 5491 5486 5483 5488 5482 5472 5470 5467 5466 5470 5468 5464 5458 5457 5456 5456 5456 5457 5459 5460 5463 5466 5469 5472 5476 5479 5481 5484 5486 5488 5489 5489 5488 5488 5486 5484 5483 5481 5479 5477 5476
5470 5471 5472 5477 5475 5481 5477 5476 5463 5460 5457 5455 5452 5450 5447 5446 5445 5444 5444 5445 5446 5446 5448 5450 5453 5456 5459 5462 5465 5468 5471 5474 5476 5477 5478 5478 5477 5475 5474 5472 5470 5468 5467 5466
5464 5467 5468 5467 5469 5468 5464 5455 5453 5450 5447 5444 5441 5439 5437 5435 5433 5432 5432 5432 5433 5434 5435 5437 5439 5442 5445 5448 5452 5455 5459 5461 5463 5465 5466 5466 5465 5464 5463 5462 5460 5459 5457 5456
5463 5466 5460 5455 5456 5452 5449 5446 5443 5439 5436 5433 5430 5427 5425 5423 5421 5420 5420 5419 5420 5420 5422 5424 5425 5427 5430 5434 5438 5442 5445 5448 5450 5452 5453 5454 5455 5454 5453 5452 5452 5452 5450 5449
5457 5458 5454 5449 5446 5444 5441 5438 5434 5430 5426 5422 5418 5415 5412 5410 5409 5407 5407 5406 5406 5407 5408 5410 5411 5413 5416 5420 5424 5428 5431 5435 5438 5440 5442 5443 5444 5445 5445 5445 5445 5444 5443 5442
5455 5454 5448 5445 5440 5437 5433 5428 5424 5420 5416 5411 5407 5403 5400 5397 5395 5393 5392 5392 5391 5392 5394 5396 5398 5400 5403 5406 5410 5414 5418 5422 5425 5428 5430 5432 5434 5436 5437 5439 5440 5439 5438 5437
5458 5452 5444 5442 5437 5430 5425 5420 5415 5410 5405 5401 5396 5391 5387 5384 5381 5379 5377 5376 5377 5378 5379 5381 5383 5386 5389 5392 5396 5400 5405 5409 5413 5415 5418 5421 5423 5426 5428 5430 5431 5432 5432 5431
5450 5446 5439 5435 5429 5424 5418 5412 5406 5401 5395 5389 5384 5379 5375 5371 5368 5365 5363 5361 5362 5363 5364 5365 5368 5371 5374 5377 5381 5386 5391 5396 5400 5404 5407 5410 5413 5416 5418 5420 5422 5424 5425 5425
5443 5438 5433 5428 5421 5415 5408 5403 5396 5391 5385 5379 5373 5368 5362 5358 5355 5351 5349 5347 5347 5348 5349 5350 5353 5356 5359 5362 5366 5371 5377 5383 5388 5392 5397 5401 5404 5406 5409 5412 5414 5416 5417 5418
5437 5432 5426 5420 5413 5406 5399 5392 5386 5379 5373 5368 5361 5355 5350 5345 5342 5339 5336 5334 5334 5334 5335 5336 5338 5341 5343 5346 5351 5357 5363 5369 5375 5380 5385 5390 5394 5396 5399 5402 5405 5407 5408 5409
5431 5424 5418 5411 5404 5397 5389 5383 5375 5368 5362 5356 5349 5344 5338 5333 5330 5327 5324 5322 5320 5321 5322 5322 5324 5327 5328 5331 5336 5342 5349 5355 5361 5367 5372 5378 5382 5386 5390 5393 5396 5399 5401 5402
5423 5417 5410 5401 5395 5388 5379 5372 5363 5357 5350 5344 5338 5333 5327 5322 5319 5317 5315 5311 5309 5308 5309 5309 5312 5314 5315 5317 5321 5327 5334 5342 5348 5355 5360 5366 5372 5377 5381 5385 5388 5391 5393 5395
5420 5413 5404 5396 5386 5378 5370 5362 5354 5346 5340 5334 5328 5321 5315 5311 5308 5306 5304 5301 5299 5298 5299 5299 5300 5301 5303 5305 5309 5314 5321 5329 5336 5342 5348 5354 5361 5367 5372 5376 5379 5382 5384 5386
5411 5403 5395 5387 5377 5368 5359 5351 5344 5336 5329 5322 5316 5310 5306 5302 5298 5295 5292 5289 5288 5289 5290 5290 5291 5291 5292 5295 5298 5303 5309 5316 5324 5330 5336 5343 5349 5355 5361 5366 5370 5373 5375 5377
5403 5395 5386 5377 5369 5358 5350 5342 5334 5326 5319 5312 5306 5301 5298 5295 5290 5286 5283 5281 5280 5280 5281 5281 5282 5282 5284 5286 5290 5294 5299 5305 5312 5319 5325 5331 5338 5344 5350 5355 5360 5364 5367 5369
5393 5385 5377 5368 5360 5351 5342 5333 5324 5317 5311 5304 5297 5294 5291 5287 5282 5278 5275 5276 5278 5274 5274 5275 5275 5275 5277 5279 5283 5286 5290 5296 5302 5308 5315 5321 5327 5334 5339 5345 5350 5354 5357 5360
5383 5375 5367 5359 5350 5342 5333 5324 5316 5308 5302 5296 5291 5286 5282 5279 5276 5273 5270 5269 5270 5269 5268 5267 5268 5269 5271 5274 5276 5278 5282 5287 5293 5299 5305 5312 5318 5324 5330 5335 5339 5343 5347 5350
5373 5365 5357 5349 5341 5333 5324 5315 5307 5300 5294 5288 5283 5278 5274 5271 5267 5264 5266 5265 5262 5262 5262 5261 5262 5265 5267 5268 5269 5272 5275 5280 5285 5291 5297 5303 5308 5314 5319 5324 5328 5333 5336 5340
5365 5357 5349 5340 5331 5322 5315 5308 5300 5292 5286 5280 5275 5270 5265 5263 5261 5258 5256 5256 5256 5256 5255 5255 5257 5259 5260 5261 5262 5265 5269 5273 5277 5282 5288 5293 5299 5303 5308 5313 5318 5322 5326 5330
5356 5347 5339 5330 5322 5315 5307 5299 5291 5285 5278 5273 5268 5263 5258 5255 5252 5252 5249 5248 5248 5249 5248 5249 5251 5252 5253 5254 5256 5259 5262 5267 5271 5275 5280 5285 5289 5294 5298 5303 5307 5312 5316 5319
5346 5338 5330 5321 5313 5305 5297 5289 5282 5275 5270 5265 5261 5256 5252 5249 5246 5244 5243 5242 5242 5243 5243 5243 5243 5245 5246 5248 5250 5253 5257 5260 5264 5268 5272 5276 5281 5285 5289 5293 5298 5302 5307 5310
5336 5328 5320 5312 5304 5295 5286 5279 5272 5265 5260 5255 5252 5248 5244 5241 5239 5238 5237 5236 5236 5237 5237 5238 5239 5240 5241 5243 5245 5248 5251 5254 5257 5261 5265 5269 5273 5277 5281 5285 5290 5294 5298 5302